{"data":{"norad_id":67582,"intl_designator":"2026-016X","name":"STARLINK-36609","alt_names":[],"object_type":"PAYLOAD","status":"ACTIVE","operator":null,"country":"US","launch_date":"2026-01-25","launch_site_code":"AFWTR","launch_vehicle":null,"mission":null,"orbit_class":"UNKNOWN","rcs_meters":null,"size_class":null,"mass_kg":null,"dimensions":null,"purposes":["comms"],"wikipedia_slug":null,"has_3d_model":false,"image_url":null,"decayed_at":null,"tle_current":{"epoch":"2026-05-25T03:50:15.353088Z","epoch_age_seconds":55168,"freshness":"FRESH","line1":"1 67582U 26016X   26145.15989992  .00019482  00000+0  60414-3 0  9994","line2":"2 67582  97.2847 205.4943 0000681 106.9854 253.1464 15.33450493 18586","mean_motion":15.33450493,"eccentricity":6.81e-5,"inclination_deg":97.2847,"raan_deg":205.4943,"arg_perigee_deg":106.9854,"mean_anomaly_deg":253.1464,"bstar":0.00060414,"rev_number":1858,"period_min":93.905868273766,"perigee_km":465.06077771667,"apogee_km":465.99288473048,"semimajor_km":6843.6638312236,"source":"CELESTRAK","updated_at":"2026-05-25T13:38:21.617841Z"}}}